2020 TS2 (2024)

Japanese version
Home page
Updated on October 3, 2024

---------------------------------------------------------------------

* Profile

* Orbital Elements

Epoch 2024 Oct. 17.0 TT = JDT 2460600.5                 Veres                   
M  18.03294              (2000.0)            P               Q                  
n   0.24891468     Peri.   76.15110     -0.84149352     +0.47572852             
a   2.5028551      Node   131.55365     -0.52303727     -0.83608395             
e   0.9507071      Incl.   20.01000     +0.13535387     -0.27321420             
P   3.96           H   19.01          G   0.15           U   1                  

* Finding Charts

* Magnitudes Graph

        m1 = 19.5 + 5 log d + 10.0 log r

---------------------------------------------------------------------

The orbital elements are published on M.P.E.C. 2024-T18.
The charts are made with StellaNavigator Ver.11 (AstroArts).
The magnitudes graphs are made with Comet for Windows.

---------------------------------------------------------------------

Copyright(C) Seiichi Yoshida (comet@aerith.net). All rights reserved.